Franklin, PA

5:41 AM EST on November 21, 2019 (GMT -0500)
Venango Regional

Weather History for KFKL - June, 2019

Change the Weather History Date:

Sunday, June 2, 2019

  Actual Average Record
Temperature  
Mean Temperature 57 °F -  
Max Temperature 63 °F 75 °F 99 °F (1934)
Min Temperature 46 °F 50 °F 35 °F (1927)
Degree Days  
Heating Degree Days 8    
Growing Degree Days 7 (Base 50)    
Moisture  
Dew Point 53 °F    
Average Humidity 84    
Maximum Humidity 96    
Minimum Humidity 46    
Precipitation  
Precipitation 0.38 in - - ()
Sea Level Pressure  
Sea Level Pressure 29.81 in    
Wind  
Wind Speed 6 mph (WSW)    
Max Wind Speed 13 mph    
Max Gust Speed 18 mph    
Visibility 8 miles    
Events Rain , Thunderstorm    
Averages and records for this station are not official NWS values.
T = Trace of Precipitation, MM = Missing Value Source: NWS Daily Summary

Daily Weather History Graph

Daily Weather History Graph

Search for Another Location

Airport or City:

Astronomy

Jun. 02, 2019 Rise Set
Actual Time 5:48 AM EDT 8:47 PM EDT
Civil Twilight 5:14 AM EDT 9:20 PM EDT
Nautical Twilight 4:32 AM EDT 10:02 PM EDT
Astronomical Twilight 3:43 AM EDT 10:52 PM EDT
Moon 5:28 AM EDT (6/2) 8:03 PM EDT (6/2)
Length of Visible Light 16h 05m
Length of Day
14h 59m
Waning Crescent, 1% of the Moon is Illuminated
Jun 2
Waning Crescent
Jun 3
New
Jun 10
First Quarter
Jun 17
Full
Jun 25
Last Quarter

Hourly Weather History & Observations

Time (EDT) Temp. Dew Point Humidity Pressure Visibility Wind Dir Wind Speed Gust Speed Precip Events Conditions
12:56 AM 57.0 °F 55.9 °F 96% 29.81 in 8.0 mi SW 5.8 mph - 0.00 in Rain Light Rain
1:56 AM 57.0 °F 55.9 °F 96% 29.80 in 7.0 mi Variable 3.5 mph - 0.01 in   Mostly Cloudy
2:54 AM 57.2 °F 55.4 °F 94% 29.82 in 5.0 mi SW 5.8 mph - 0.02 in Rain Light Rain
2:56 AM 57.0 °F 55.9 °F 96% 29.80 in 5.0 mi WSW 4.6 mph - 0.02 in Rain Rain
3:05 AM 57.2 °F 55.4 °F 94% 29.82 in 5.0 mi WSW 9.2 mph - 0.02 in Rain Rain
3:11 AM 57.2 °F 55.4 °F 94% 29.82 in 6.0 mi SW 9.2 mph - 0.03 in Rain , Thunderstorm Rain
3:21 AM 57.2 °F 55.4 °F 94% 29.82 in 5.0 mi WSW 4.6 mph - 0.08 in Rain , Thunderstorm Rain
3:29 AM 57.2 °F 55.4 °F 94% 29.81 in 6.0 mi WSW 4.6 mph - 0.11 in Rain , Thunderstorm Rain
3:45 AM 57.2 °F 55.4 °F 94% 29.80 in 5.0 mi SSW 5.8 mph - 0.16 in Rain , Thunderstorm Light Rain
3:56 AM 57.0 °F 55.9 °F 96% 29.78 in 7.0 mi SSW 5.8 mph - 0.17 in Rain , Thunderstorm Rain
4:03 AM 57.2 °F 55.4 °F 94% 29.79 in 5.0 mi South 5.8 mph - 0.02 in Rain Rain
4:56 AM 57.0 °F 55.9 °F 96% 29.74 in 9.0 mi South 10.4 mph - 0.10 in Rain Light Rain
5:14 AM 57.2 °F 55.4 °F 94% 29.74 in 7.0 mi South 9.2 mph - 0.00 in Rain Light Rain
5:56 AM 57.0 °F 55.9 °F 96% 29.74 in 8.0 mi South 9.2 mph - 0.05 in Rain Light Rain
6:56 AM 57.0 °F 55.9 °F 96% 29.76 in 8.0 mi Calm Calm - 0.01 in   Overcast
7:06 AM 57.2 °F 55.4 °F 94% 29.76 in 9.0 mi SSE 3.5 mph - N/A   Overcast
7:56 AM 57.0 °F 55.9 °F 96% 29.78 in 8.0 mi SSW 5.8 mph - N/A   Overcast
8:33 AM 59.0 °F 57.2 °F 94% 29.78 in 10.0 mi SW 5.8 mph - N/A   Overcast
8:56 AM 59.0 °F 57.0 °F 93% 29.78 in 10.0 mi SW 8.1 mph - N/A   Overcast
9:22 AM 60.8 °F 57.2 °F 88% 29.79 in 10.0 mi WSW 6.9 mph - N/A   Overcast
9:45 AM 60.8 °F 57.2 °F 88% 29.79 in 10.0 mi WSW 6.9 mph - N/A   Overcast
9:56 AM 60.1 °F 57.0 °F 90% 29.79 in 10.0 mi West 5.8 mph - N/A   Overcast
10:30 AM 60.8 °F 57.2 °F 88% 29.79 in 10.0 mi West 8.1 mph - N/A   Overcast
10:49 AM 60.8 °F 57.2 °F 88% 29.79 in 10.0 mi West 6.9 mph - N/A   Overcast
10:56 AM 61.0 °F 57.9 °F 90% 29.79 in 10.0 mi West 6.9 mph - N/A   Overcast
11:35 AM 60.8 °F 57.2 °F 88% 29.80 in 10.0 mi West 5.8 mph - N/A   Overcast
11:56 AM 61.0 °F 57.0 °F 87% 29.80 in 9.0 mi West 9.2 mph - N/A   Overcast
12:08 PM 60.8 °F 57.2 °F 88% 29.81 in 6.0 mi West 6.9 mph - 0.01 in Rain Light Rain
12:15 PM 60.8 °F 57.2 °F 88% 29.81 in 7.0 mi West 5.8 mph - 0.01 in Rain Light Rain
12:56 PM 60.1 °F 57.9 °F 93% 29.81 in 8.0 mi West 9.2 mph - 0.02 in   Overcast
1:56 PM 57.0 °F 55.0 °F 93% 29.83 in 6.0 mi NW 12.7 mph 18.4 mph 0.00 in   Overcast
2:43 PM 55.4 °F 50.0 °F 82% 29.84 in 10.0 mi Variable 6.9 mph - N/A   Overcast
2:56 PM 55.0 °F 50.0 °F 83% 29.83 in 10.0 mi Variable 5.8 mph - N/A   Overcast
3:08 PM 55.4 °F 48.2 °F 77% 29.83 in 10.0 mi Variable 5.8 mph - N/A   Overcast
3:56 PM 60.1 °F 44.1 °F 55% 29.83 in 10.0 mi Variable 6.9 mph - N/A   Mostly Cloudy
4:56 PM 62.1 °F 44.1 °F 52% 29.84 in 10.0 mi Variable 5.8 mph - N/A   Clear
5:56 PM 63.0 °F 42.1 °F 46% 29.86 in 10.0 mi NW 8.1 mph - N/A   Clear
6:56 PM 61.0 °F 39.9 °F 46% 29.87 in 6.0 mi Variable 4.6 mph - N/A   Haze
7:56 PM 59.0 °F 37.9 °F 46% 29.89 in 10.0 mi NW 4.6 mph - N/A   Clear
8:56 PM 53.1 °F 39.9 °F 61% 29.90 in 10.0 mi WNW 4.6 mph - N/A   Clear
9:56 PM 52.0 °F 39.9 °F 63% 29.92 in 10.0 mi West 4.6 mph - N/A   Clear
10:56 PM 51.1 °F 39.0 °F 63% 29.92 in 10.0 mi West 3.5 mph - N/A   Clear
11:56 PM 46.9 °F 42.1 °F 83% 29.92 in 10.0 mi Calm Calm - N/A   Overcast